Find Starlink 3879

NORAD ID: 52473 Int'l Des: 2022-049 Owner: SPXS Country: US Constellation: starlink operational
LEOCIRCULAR

現在のビュー

3D地球を読み込み中...

About Starlink 3879

Starlink 3879 (NORAD 52473) is a starlink constellation satellite (v1.5) launched May 6, 2022 by SPXS of US. It operates in LEO, CIRCULAR orbit with a mass of 297.00 kg.

次回通過

Passes for default location (London). Set your location on the main map for personalized predictions.

高度履歴

Loading altitude history...

軌道要素

1 52473U 22049Y 26262.60356782 -.00001853 00000-0 -45033-4 0 9991
2 52473 53.1605 258.2047 0001238 70.3964 289.7171 15.33544830241664
Epoch: Sep 19, 2026 • Age: 26 hours

現在のステータス

高度 477.3 km
遠地点 / 近地点 N/A
速度 7.63 km/s
衛星直下点 -36.22°S, 32.64°W
打ち上げ日 May 6, 2022
運用期間 4.3 years
タイプ internet

技術仕様

分類 Payload
質量 297.00 kg
乾燥質量 220.00 kg
長さ 0.20 m
スパン 9.00 m
形状 ? Box + pan
製造者 SPXS
バスタイプ Starlink
フェーズステータス In Orbit
所有者/国 SPXS/US

Most Searched